www.pogodaiklimat.ru
ПОГОДА в Париж Орли аэропорту
Время
(UTC), дата
07 19.10
08 19.10
09 19.10
11 19.10
12 19.10
13 19.10
14 19.10
15 19.10
16 19.10
17 19.10
18 19.10
19 19.10
20 19.10
21 19.10
22 19.10
23 19.10
00 20.10
01 20.10
02 20.10
03 20.10
04 20.10
05 20.10
06 20.10
07 20.10
08 20.10
09 20.10
10 20.10
11 20.10
12 20.10
13 20.10
14 20.10
15 20.10
16 20.10
17 20.10
18 20.10
19 20.10
20 20.10
21 20.10
22 20.10
23 20.10
00 21.10
01 21.10
02 21.10
03 21.10
04 21.10
05 21.10
06 21.10
07 21.10
08 21.10
09 21.10
10 21.10
11 21.10
12 21.10
13 21.10
14 21.10
15 21.10
16 21.10
17 21.10
18 21.10
19 21.10
20 21.10
21 21.10
22 21.10
23 21.10
00 22.10
01 22.10
02 22.10
03 22.10
04 22.10
05 22.10
06 22.10
07 22.10
08 22.10
09 22.10
10 22.10
11 22.10
12 22.10
13 22.10
14 22.10
15 22.10
16 22.10
17 22.10
18 22.10
19 22.10
20 22.10
21 22.10
22 22.10
23 22.10
00 23.10
01 23.10
02 23.10
03 23.10
04 23.10
05 23.10
06 23.10
07 23.10
08 23.10
09 23.10
10 23.10
11 23.10
12 23.10
13 23.10
14 23.10
15 23.10
16 23.10
17 23.10
18 23.10
19 23.10
20 23.10
21 23.10
22 23.10
23 23.10
00 24.10
01 24.10
02 24.10
03 24.10
04 24.10
05 24.10
06 24.10
07 24.10
08 24.10
09 24.10
10 24.10
11 24.10
12 24.10
13 24.10
14 24.10
15 24.10
16 24.10
17 24.10
18 24.10
19 24.10
20 24.10
21 24.10
22 24.10
23 24.10
00 25.10
01 25.10
02 25.10
03 25.10
04 25.10
05 25.10
06 25.10
07 25.10
08 25.10
09 25.10
10 25.10
11 25.10
12 25.10
13 25.10
14 25.10
15 25.10
16 25.10
17 25.10
18 25.10
19 25.10
20 25.10
21 25.10
22 25.10
23 25.10
00 26.10
01 26.10
02 26.10
03 26.10
04 26.10
05 26.10
06 26.10
Ветер
(напр.,м/с)
Видим. Явления Облачность Т
(С)
Тd
(С)
f
(%)
Тe
(С)
Тes
(С)
Комфортность P
(гПа)
Po
(гПа)
Тmin
(С)
Tmax
(С)
R
(мм)
R24
(мм)
S
(см)
штиль 0 1600 м местами туман поземный 5/1 120 м
[St Ci fib]
+4.6 +4.3 98 +3 +3 тепло 1022.4 1011.2
В 1 8000 м 6/0 +6.3 +5.6 95 +5 +6 тепло 1022.1 1011.0
ЮВ 2
{3}
10 км 8/0
[Ci fib]
+8.6 +6.9 89 +7 +8 по сезону 1021.8 1010.8
ЮВ 3
{5}
18 км 9/0
[Ci fib]
+12.3 +6.6 68 +11 +15 тепло 1020.7 1009.8
ЮВ 4
{6}
20 км 9/0
[Ci fib]
+13.3 +6.2 62 +12 +15 тепло 1019.7 1008.9
ЮВ 3 24 км 9/0 +13.6 +4.5 54 +13 +15 тепло 1018.6 1007.8
ЮВ 3 20 км 9/0 +14.5 +3.6 48 +14 +15 тепло 1017.3 1006.5
ЮВ 6
{10}
20 км 9/0
[Ci]
+14.1 +4.1 51 +12 +13 тепло 1016.4 1005.6
ЮВ 2 27 км 8/0 +13.4 +4.5 55 +13 +13 тепло 1015.8 1005.0
ЮВ 2 40 км 9/0 +12.1 +5.3 63 +12 +12 тепло 1014.9 1004.1
В 3
{5}
30 км 9/0
[Ci sp]
+11.8 +5.6 66 +10 +10 тепло 1013.9 1003.1 +3.6 +14.9
ЮВ 2 30 км 9/0
[Ac As]
+11.4 +5.5 67 +10 +10 тепло 1013.6 1002.8
В 1 30 км 5/0
[Ac trans]
+10.3 +5.5 72 +10 +10 тепло 1012.8 1001.9
ЮВ 3
{5}
30 км 8/0
[Ac As]
+10.2 +5.6 73 +8 +8 тепло 1012.0 1001.1
ЮВ 1 30 км 9/0
[Ac As]
+9.8 +5.8 76 +9 +9 тепло 1011.4 1000.5
ЮВ 1 30 км 9/0
[Ac As]
+9.6 +6.1 79 +9 +9 тепло 1011.3 1000.4
ЮВ 3
{4}
30 км 6/0
[Ci sp]
+9.0 +6.3 83 +7 +7 по сезону 1010.6 999.7
ЮВ 2 30 км 9/0 +8.8 +6.4 85 +7 +7 по сезону 1010.0 999.1
ЮВ 1 30 км 9/0 +9.2 +7.0 86 +9 +9 тепло 1010.0 999.1
ЮВ 2
{4}
30 км 9/0
[Ac As Ci]
+9.9 +7.3 84 +8 +8 по сезону 1009.2 998.4
Ю 1 30 км 10/0
[Ac As]
+11.2 +7.9 80 +11 +11 тепло 1009.2 998.4
Ю 1 12 км слаб. дождь 10/6 2000 м
[Sc Ac As]
+11.4 +8.6 83 +11 +11 тепло 1009.4 998.6 0.0
Ю 3
{6}
30 км слаб. дождь 10/6 2000 м
[Sc Ac As]
+11.2 +9.5 89 +9 +9 тепло 1008.5 997.7 +8.6 +11.9 0.4 0.4
Ю 2 30 км {дождь} 10/9 2000 м
[Sc]
+12.0 +9.9 87 +11 +11 тепло 1009.3 998.5 0.0
Ю 1 24 км 10/4 2000 м
[Sc Ac As]
+12.4 +10.1 86 +12 +12 тепло 1009.6 998.9
Ю 3
{7}
30 км {дождь} 10/0
[Ac As]
+13.3 +10.5 83 +12 +13 тепло 1009.6 998.9 0.0
Ю 2 28 км 10/3 2000 м
[Sc Ac As]
+14.4 +10.6 78 +14 +15 тепло 1010.0 999.3
Ю 3 30 км слаб. дождь 10/9 1500 м
[Sc]
+14.1 +11.6 85 +13 +13 тепло 1010.3 999.6 0.2
Ю 5
{9}
20 км слаб. дождь 10/9 1200 м
[Sc]
+13.9 +12.1 89 +12 +12 по сезону 1010.0 999.3 0.6
Ю 3 16 км слаб. дождь 10/9 1380 м
[Sc]
+14.0 +12.7 92 +13 +13 по сезону 1009.6 998.9 0.6
Ю 2 16 км слаб. дождь 10/9 480 м
[Sc]
+14.0 +13.0 94 +13 +14 тепло 1009.1 998.4 0.8
Ю 4
{7}
16 км слаб. дождь 10/6 1500 м
[Sc Ac As]
+14.1 +13.1 94 +13 +13 по сезону 1008.9 998.2 2
Ю 2 22 км {дождь} 10/9 1000 м
[Sc]
+14.2 +13.2 94 +14 +14 тепло 1008.5 997.8 0.0
Ю 3 3400 м слаб. дождь 10/10 270 м +14.1 +13.3 95 +13 +13 тепло 1008.2 997.5 0.6
Ю 5
{9}
2800 м дождь 10/10 200 м +13.8 +13.2 96 +12 +12 по сезону 1007.9 997.2 +11.3 +14.5 1 0
Ю 3 8000 м слаб. дождь 10/9 210 м
[Sc]
+13.7 +13.1 96 +13 +13 тепло 1007.2 996.5 1
Ю 2 4500 м слаб. дождь 10/10 210 м +13.6 +13.0 96 +13 +13 тепло 1006.9 996.2 0.8
Ю 3
{6}
8000 м слаб. дождь 10/9 1050 м
[Sc]
+13.5 +12.9 96 +12 +12 тепло 1006.4 995.7 4
ЮВ 2 8000 м слаб. дождь 10/9 450 м
[Sc]
+13.3 +12.7 96 +13 +13 тепло 1005.7 995.0 1
ЮВ 1 6000 м слаб. дождь 10/5 2000 м
[Sc Ac As]
+13.1 +12.3 95 +13 +13 тепло 1005.1 994.4 1
ЮВ 3
{6}
25 км в посл. час дождь 10/5 1300 м
[Sc Ac As]
+13.0 +12.1 94 +12 +12 тепло 1004.0 993.3 3
ЮВ 2 18 км слаб. дождь 10/4 1300 м
[Sc Ac As]
+13.2 +11.8 91 +13 +13 тепло 1003.2 992.6 0.0
ЮВ 1 19 км слаб. дождь 10/8 1300 м
[Sc Ac As]
+13.3 +11.9 91 +13 +13 тепло 1002.5 991.9 0.2
ЮВ 3
{5}
15 км слаб. дождь 10/8 1300 м
[Sc Ac As]
+13.2 +11.9 92 +12 +12 тепло 1001.4 990.8 0.4
ЮВ 1 25 км {дождь} 10/10 2000 м +13.3 +12.2 93 +13 +13 тепло 1000.9 990.3 0.4
ЮВ 2 25 км 10/3 2000 м
[Sc Ac As]
+13.8 +12.0 89 +13 +13 тепло 1000.4 989.8 0.0
Ю 5
{9}
25 км {дождь} 10/3 2000 м
[Sc Ac As]
+14.7 +11.7 82 +13 +13 тепло 999.4 988.9 +13.0 +14.7 0.4 11.1
Ю 3 25 км 9/0
[Ac trans Ci fib]
+16.6 +11.3 71 +16 +16 тепло 999.2 988.7
Ю 4 25 км 5/0
[Ac As Ci fib]
+17.5 +11.3 67 +17 +18 тепло 999.7 989.3
Ю 9-16
{16}
18 км 9/9 1500 м +20.0 +11.7 59 +21 +21 комфорт 1000.4 990.0 0
Ю 5 13 км в посл. час ливневой дождь 8/8 1200 м
[Cu Sc]
+19.4 +12.9 66 +21 +21 комфорт 1001.8 991.4 0.0
Ю 9-17
{22}
20 км 8/8 930 м
[Cu Sc]
+20.0 +13.9 68 +21 +21 комфорт 1002.7 992.3
ЮЗ 10-17
{18}
20 км {ливн. дождь, дождь} 8/8 930 м
[Cu Sc]
+20.4 +13.8 66 +22 +22 комфорт 1003.0 992.6 0.0
ЮЗ 5 20 км 8/8 1000 м
[Cu Sc]
+20.6 +13.8 65 +23 +24 комфорт 1003.1 992.7
ЮЗ 5 20 км 6/6 1000 м
[Cu Sc]
+21.1 +13.8 63 +24 +24 комфорт 1003.9 993.5
ЮЗ 7
{16}
20 км 5/5 1200 м
[Cu Sc]
+21.3 +13.0 59 +24 +24 комфорт 1004.8 994.4
ЮЗ 3 20 км 5/3 1200 м
[Cu Sc Ci fib]
+20.1 +13.3 65 +23 +23 комфорт 1005.5 995.1
ЮЗ 2 20 км 5/1 1380 м
[Cu hum Ci sp]
+18.7 +13.3 71 +20 +20 тепло 1006.8 996.3
ЮЗ 5
{10}
20 км 5/0
[Ci sp]
+17.9 +12.6 71 +17 +17 тепло 1007.7 997.2 +14.7 +21.7
Ю 2 45 км ясно +16.5 +12.5 77 +17 +17 тепло 1008.6 998.0
Ю 2 30 км 3/0 +16.1 +12.3 78 +16 +16 тепло 1009.3 998.7
Ю 2
{5}
20 км 3/0
[Ci fib]
+15.3 +11.9 80 +15 +15 тепло 1009.9 999.3
Ю 1 15 км 9/9 2000 м +15.0 +11.8 81 +15 +15 тепло 1010.2 999.6
ЮЗ 2 20 км 9/6 2000 м
[Sc Ac trans]
+14.9 +11.7 81 +15 +15 тепло 1010.6 999.9
Ю 3
{6}
20 км 9/3
[Sc Ac trans]
+14.5 +11.8 84 +14 +14 тепло 1011.0 1000.3
Ю 2 20 км слаб. дождь 9/5 2000 м
[Sc Ac und]
+14.5 +12.9 90 +14 +14 тепло 1011.5 1000.8 0.2
Ю 2 19 км слаб. дождь 9/4 2000 м
[Sc Ac und]
+14.3 +13.3 94 +14 +14 тепло 1011.2 1000.5 0.2
Ю 2
{5}
25 км в посл. час дождь 8/0
[Ac trans]
+14.1 +13.3 95 +13 +13 тепло 1011.4 1000.7 0.4
Ю 1 17 км 9/6 240 м
[Sc Ac trans]
+14.2 +13.6 96 +14 +14 тепло 1011.2 1000.5
Ю 2 20 км слаб. дождь 9/6 270 м
[Frnb Ac trans]
+14.3 +13.7 96 +14 +14 тепло 1011.7 1001.0 0.0
Ю 2
{5}
25 км в посл. час дождь 9/9 150 м
[Frnb]
+13.9 +13.3 96 +13 +13 тепло 1011.5 1000.8 +13.9 +17.8 0.0 0.4
Ю 2 25 км 9/9 120 м
[Frnb]
+13.7 +13.1 96 +13 +13 тепло 1012.1 1001.4
Ю 1 25 км 8/5 210 м
[Cu Sc Ci fib]
+14.5 +13.5 94 +15 +15 тепло 1012.7 1002.0
Ю 3
{4}
25 км 9/1 300 м
[Cu hum Ac trans]
+15.6 +13.8 89 +15 +16 тепло 1012.6 1002.0
Ю 2 20 км 8/1 420 м
[Cu hum Ac trans]
+19.0 +14.9 77 +21 +22 комфорт 1012.7 1002.2
ЮЗ 3 25 км 6/1 600 м
[Cu hum Ac trans]
+19.8 +15.0 74 +22 +25 комфорт 1012.5 1002.0
ЮЗ 5
{9}
25 км 9/1 750 м
[Cu med, cong Ac trans]
+19.6 +14.4 72 +21 +22 комфорт 1012.3 1001.8
ЮЗ 3 25 км слаб. ливневой дождь 9/3 800 м
[Cu med, cong Ac As]
+19.1 +14.6 75 +21 +22 комфорт 1012.2 1001.7 0.0
ЮЗ 2 25 км в посл. час ливневой дождь 9/1 800 м
[Cu med, cong Ac As]
+18.7 +14.8 78 +20 +21 тепло 1012.1 1001.6 0.0
ЮЗ 3
{7}
25 км {ливн. дождь, дождь} 9/4 700 м
[Cu med, cong Ac As]
+18.8 +15.1 79 +20 +20 тепло 1012.2 1001.7 0.0
ЮЗ 2 25 км 8/5 630 м
[Cu Sc Ac As]
+18.7 +14.6 77 +20 +20 тепло 1012.2 1001.7
Ю 1 25 км 9/4 660 м
[Cu Sc Ac As]
+17.5 +14.0 80 +19 +19 тепло 1012.2 1001.6
Ю 3
{4}
25 км {ливн. дождь, дождь} 8/1 800 м
[Cu hum Ac trans]
+16.5 +13.6 83 +16 +16 тепло 1012.9 1002.3 +13.7 +20.5
Ю 2 25 км 6/0
[Ac trans]
+15.7 +14.1 90 +16 +16 тепло 1012.7 1002.1
Ю 1 25 км 9/0
[Ac trans Ci sp]
+15.3 +13.8 91 +16 +16 тепло 1012.9 1002.2
Ю 1
{3}
25 км 9/0
[Ac trans Ci sp]
+14.9 +13.6 92 +16 +16 тепло 1013.1 1002.4
Ю 1 20 км 9/4 1050 м
[Cu hum Ac trans]
+15.1 +14.0 93 +16 +16 тепло 1013.3 1002.6
Ю 2 20 км слаб. ливневой дождь 9/6 300 м
[Cu Sc Ac trans]
+15.3 +14.2 93 +15 +15 тепло 1013.0 1002.3 0.0
Ю 3
{6}
20 км в посл. час ливневой дождь 9/6 240 м
[Cu Sc Ac trans]
+14.7 +13.7 94 +14 +14 тепло 1012.8 1002.1 0.2
Ю 1 20 км 9/9 240 м
[Sc]
+14.5 +13.7 95 +15 +15 тепло 1012.7 1002.0
Ю 1 20 км 9/9 180 м
[Sc]
+14.7 +13.9 95 +16 +16 тепло 1012.4 1001.7
Ю 2
{3}
20 км 9/9 150 м
[Sc]
+14.5 +13.9 96 +14 +14 тепло 1012.0 1001.3
Ю 1 10 км 9/9 210 м
[Sc]
+14.2 +13.7 97 +15 +15 тепло 1011.6 1000.9
Ю 1 10 км 9/9 150 м
[Sc]
+14.3 +13.8 97 +15 +15 тепло 1011.4 1000.7
Ю 3
{5}
13 км 10/10 100 м +14.3 +13.8 97 +13 +13 тепло 1011.3 1000.6 +14.1 +16.5 0.2 0.2 0
ЮЗ 2 5000 м дымка 9/9 120 м
[St]
+14.5 +14.0 97 +14 +14 тепло 1011.8 1001.1
Ю 1 3800 м 9/9 120 м
[Sc]
+14.7 +14.2 97 +15 +15 тепло 1012.2 1001.5
ЮЗ 4
{6}
17 км 9/9 210 м
[Sc]
+15.1 +14.5 96 +14 +14 тепло 1012.5 1001.8
ЮЗ 1 20 км 9/9 330 м
[Cu Sc]
+16.1 +14.6 91 +17 +17 тепло 1012.4 1001.8
З 4
{7}
17 км 9/9 420 м
[Cu Sc]
+16.5 +14.1 86 +16 +16 тепло 1012.8 1002.2
З 4
{8}
20 км 6/6 540 м
[Cu Sc]
+17.3 +13.6 79 +17 +18 тепло 1012.3 1001.7
З 2 20 км 5/4 840 м
[Cu med, cong Ac trans]
+18.7 +12.0 65 +20 +22 тепло 1012.0 1001.5
ЮЗ 2 25 км 5/4 1000 м
[Cu med, cong Ci fib]
+18.1 +10.7 62 +19 +20 тепло 1012.4 1001.8
З 5
{9}
25 км 6/4 1200 м
[Cu med, cong Ci fib]
+18.5 +10.1 58 +19 +19 тепло 1012.9 1002.3
ЮЗ 3 19 км н/о +17.7 +9.8 60 +18 +18 тепло 1013.2 1002.6
ЮЗ 2 20 км 5/3 1200 м
[Cu Sc Ci fib]
+15.9 +10.0 68 +16 +16 тепло 1013.7 1003.0
ЮЗ 3
{5}
40 км н/о +15.3 +10.3 72 +15 +15 тепло 1014.0 1003.3 +14.3 +19.4 0
Ю 2 35 км н/о +14.7 +10.5 76 +15 +15 тепло 1014.3 1003.6
Ю 2 40 км 3/3 1260 м
[Sc]
+13.9 +10.5 80 +14 +14 тепло 1014.6 1003.9
Ю 4
{7}
20 км 1/1 1080 м
[Sc]
+13.4 +10.7 84 +12 +12 тепло 1015.2 1004.4
ЮЗ 2 50 км 9/9 630 м +13.3 +10.8 85 +13 +13 тепло 1016.2 1005.4
ЮЗ 2 45 км 8/8 750 м
[Sc]
+13.2 +10.7 85 +12 +12 тепло 1016.2 1005.4
ЮЗ 4
{7}
20 км 1/1 400 м
[Sc]
+11.8 +9.9 88 +10 +10 тепло 1016.5 1005.7
ЮЗ 2 30 км 8/8 800 м
[Sc]
+11.4 +9.6 89 +11 +11 тепло 1016.6 1005.7
Ю 2 30 км 1/0
[Ac trans]
+11.2 +9.5 89 +10 +10 тепло 1016.2 1005.3
Ю 4
{7}
30 км 8/1 900 м
[Sc Ac trans]
+11.3 +9.6 89 +9 +9 по сезону 1015.6 1004.7
Ю 2 30 км 10/8 420 м
[Sc Ac As]
+12.4 +10.3 87 +11 +11 тепло 1015.5 1004.7
Ю 3 30 км 10/10 360 м
[Sc]
+12.4 +10.8 90 +11 +11 тепло 1015.6 1004.8
ЮЗ 6
{10}
45 км 10/10 300 м +13.0 +11.1 88 +11 +11 тепло 1015.2 1004.4 +11.0 +15.3 0
Ю 3 17 км {дождь} 10/10 270 м +13.0 +11.4 90 +12 +12 тепло 1015.1 1004.3 0.0
Ю 4 28 км 10/10 300 м +13.8 +11.8 88 +12 +12 тепло 1015.0 1004.3
Ю 8-13
{13}
15 км {дождь} 10/9 360 м
[Sc]
+14.4 +12.1 86 +12 +12 тепло 1014.8 1004.1 0.0
Ю 4 15 км в посл. час дождь {морось} 9/9 450 м
[Sc]
+15.1 +12.2 83 +14 +14 тепло 1014.7 1004.0 0.0
Ю 4 5000 м дождь {морось} 9/9 400 м
[Sc]
+15.0 +12.7 86 +14 +14 тепло 1014.5 1003.8 0.0
Ю 7
{13}
8000 м дождь {морось} 10/9 270 м
[Frnb]
+14.6 +13.3 92 +13 +13 по сезону 1013.7 1003.0 0.0
Ю 4 2500 м дождь {морось} 9/9 240 м
[Frnb]
+14.6 +13.6 94 +13 +14 тепло 1013.2 1002.5 0.4
Ю 4 45 км в посл. час дождь {морось} 10/9 450 м
[Sc]
+15.6 +13.3 86 +15 +15 тепло 1012.6 1002.0 0.0
ЮЗ 8
{15}
20 км {дождь, морось} 10/9 480 м
[Sc]
+15.5 +13.0 85 +14 +14 тепло 1012.2 1001.6 0.6
ЮЗ 4 45 км 10/9 480 м
[Sc]
+15.5 +12.6 83 +14 +14 тепло 1011.5 1000.9
Ю 4 40 км 10/10 540 м
[Sc]
+15.2 +12.3 83 +14 +14 тепло 1010.9 1000.3
Ю 8-14
{14}
12 км 10/10 300 м +15.1 +12.0 82 +13 +13 тепло 1010.6 1000.0 +13.0 +15.8 0
Ю 4 45 км в посл. час дождь 9/9 360 м
[Sc]
+14.3 +12.2 87 +13 +13 тепло 1010.0 999.3 0.0
Ю 4 50 км 10/9 630 м +14.4 +11.4 82 +13 +13 тепло 1009.3 998.6
Ю 7
{12}
25 км {дождь} 8/5 1500 м
[Sc Ci fib]
+14.1 +10.9 81 +12 +12 тепло 1009.2 998.5 0.0
Ю 4 30 км 10/1 570 м +14.3 +10.7 79 +13 +13 тепло 1008.3 997.6
Ю 3 25 км в посл. час дождь 9/9 570 м
[Cu Sc]
+13.9 +10.9 82 +13 +13 тепло 1007.4 996.7 0.0
Ю 7
{13}
25 км {дождь} 9/5 700 м
[Cu Sc Ac As]
+14.2 +10.6 79 +12 +12 тепло 1006.6 996.0 0.0
Ю 4 55 км 10/10 2000 м +14.4 +10.0 75 +13 +13 тепло 1006.0 995.4
Ю 4 15 км слаб. дождь 10/3 1500 м
[Sc Ac As]
+14.2 +9.8 75 +13 +13 тепло 1005.1 994.5 0.0
Ю 7
{13}
15 км слаб. дождь 10/3 1500 м
[Sc Ac As]
+13.2 +10.0 81 +11 +11 тепло 1004.0 993.3 0.2
ЮЗ 5
{12}
10 км слаб. дождь 10/9 870 м
[Cu Sc]
+13.4 +10.0 80 +11 +11 тепло 1004.1 993.5 0.0
Ю 3 5000 м слаб. дождь 10/10 570 м
[Cu Sc]
+12.4 +10.8 90 +11 +11 тепло 1004.7 994.0 1
ЮЗ 4
{8}
8000 м слаб. дождь 10/10 1170 м
[Cu Sc]
+12.1 +11.0 93 +10 +10 тепло 1004.5 993.8 +12.1 +15.0 2 2.8
Ю 2 20 км слаб. дождь 10/9 1320 м
[Cu Sc]
+11.8 +10.7 93 +11 +11 тепло 1003.8 993.1 0.2
ЮЗ 3 12 км слаб. дождь 10/10 270 м
[Sc]
+11.8 +10.9 94 +10 +10 тепло 1005.3 994.6 0.6
ЮЗ 4
{10}
10 км слаб. дождь 10/10 400 м
[Cu Sc]
+11.0 +9.6 91 +9 +9 по сезону 1004.9 994.2 2
Ю 1 15 км слаб. дождь 10/10 240 м
[Cu Sc]
+11.0 +10.1 94 +11 +11 тепло 1004.4 993.7 0.4
Ю 2 40 км в посл. час дождь 9/1 400 м
[Cu hum Ac As]
+11.3 +10.0 92 +10 +11 тепло 1004.4 993.7 0.2
Ю 4
{8}
30 км в посл. час дождь 9/4 400 м
[Cu hum Ac As]
+11.2 +9.9 92 +9 +10 прохладно 1003.7 993.0 0.6
Ю 3 45 км 10/9 450 м
[Sc]
+11.7 +9.9 89 +10 +10 по сезону 1003.0 992.3
ЮЗ 3 35 км 10/9 450 м
[Sc]
+11.9 +9.8 87 +10 +11 по сезону 1003.1 992.4
ЮЗ 4
{10}
35 км 10/10 300 м +12.1 +10.5 90 +10 +10 по сезону 1003.1 992.4 0.0 0
Ю 2 27 км слаб. ливневой дождь 10/9 360 м
[Cu Sc]
+11.8 +10.5 92 +11 +11 по сезону 1003.1 992.4 0.2
ЮЗ 4 3200 м слаб. дождь 10/10 210 м
[Cb calv]
+11.7 +10.8 94 +9 +9 по сезону 1003.2 992.5 0.8
Ю 2
{8}
8000 м слаб. дождь 10/10 210 м
[Cb calv]
+10.1 +9.2 94 +8 +8 по сезону 1003.1 992.3 +10.1 +12.2 3
Ю 1 9000 м слаб. дождь 10/4 840 м +10.5 +9.7 95 +11 +11 тепло 1003.1 992.4 0.8
Ю 2 11 км в посл. час дождь 9/9 1140 м
[Cu Sc]
+11.0 +10.1 94 +10 +10 тепло 1003.0 992.3 0.0
Ю 4
{7}
20 км {дождь} 8/8 1140 м
[Cu Sc Ci sp]
+10.5 +9.4 93 +8 +8 по сезону 1003.7 992.9 0.8
ЮЗ 2 20 км 6/1 360 м
[Sc Ci fib]
+9.4 +8.2 92 +8 +8 по сезону 1003.6 992.8
ЮЗ 2 35 км 8/5 270 м +9.1 +8.2 94 +8 +8 тепло 1003.8 993.0
ЮЗ 5
{8}
20 км {дождь} 9/9 270 м
[St]
+9.1 +8.2 94 +6 +6 по сезону 1003.3 992.5
ЮЗ 3 20 км 9/9 300 м
[St]
+9.1 +7.9 92 +7 +7 тепло 1003.1 992.3
ЮЗ 2 20 км 8/8 360 м
[St]
+8.5 +7.4 93 +6 +6 тепло 1003.6 992.8
ЮЗ 3
{6}
20 км 5/5 360 м
[Sc]
+8.1 +7.2 94 +5 +5 по сезону 1003.2 992.4
ЮЗ 2 30 км 5/5 300 м
[Sc]
+7.7 +6.8 94 +6 +6 тепло 1003.5 992.6
Ю 2 20 км 4/4 300 м
[St]
+7.4 +6.5 94 +5 +5 тепло 1003.8 992.9
ЮЗ 4
{6}
20 км 3/0
[Ci fib]
+7.1 +6.2 94 +4 +4 по сезону 1004.6 993.7 +7.0 +11.0 0.2 6.8
Местоположение метеостанции Париж Орли аэропорт (Франция): широта 48.72 долгота 2.38 высота над уровнем моря 90 м.
В архиве по умолчанию представлена погода в Париж Орли аэропорту за последнюю неделю. Архивные данные за месяц целиком и за предыдущие месяцы, начиная с января 2011 года, Вы можете получить, выбрав интересующий диапазон дат из раскрывающегося списка и нажав кнопку "Найти!".
*Определитесь, кто Вы:
Внимание! Время в таблицах - всемирное. Для получения местного времени необходимо прибавить поправку, которая равна 1 ч.
Смотрите также архив погоды в соседних городах и на ближайших метеорологических станциях:
Партнеры нашего сайта:      
Пояснения к столбцам:
  • Ветер - указаны скорость ветра в м/с - средняя за 10 мин, порывы в срок и между сроками (в фигурных скобках) и направление, откуда дует ветер: С - северный,
  • СВ - северо-восточный, В - восточный, ЮВ - юго-восточный, Ю - южный, ЮЗ - юго-западный, З - западный, СЗ - северо-западный.
  • Видимость - горизонтальная дальность видимости в метрах или километрах. При видимости от 1 до 10 км при отсутствии осадков обычно наблюдается дымка, при ухудшении видимости до 1 км и менее - туман. В сухую погоду видимость может ухудшаться дымом, пылью или мглою.
  • Явления - указаны атмосферные явления, наблюдавшиеся в срок или в последний час перед сроком; фигурными скобками обозначены явления, наблюдавшиеся между сроками (за 1-3 часа до срока); квадратными скобками обозначены град или гололедные отложения с указанием их диаметра в мм.
  • Облачность - указаны через наклонную черту общая и нижняя облачность в баллах и высота нижней границы облаков в метрах; квадратными скобками обозначены формы облаков: Ci - перистые, Cs - перисто-слоистые, Cc - перисто-кучевые, Ac - высококучевые, As - высокослоистые, Sc - слоисто-кучевые, Ns - слоисто-дождевые, Cu - кучевые, Cb - кучево-дождевые. Подробнее классификацию облаков см. в Атласе облаков (PDF).
  • T - Температура воздуха - температура, измеренная на высоте 2 м над землей.
  • Td - Температура точки росы - температура, при понижении до которой содержащийся в воздухе водяной пар достигнет насыщения.
  • f - Относительная влажность воздуха - влажноcть воздуха, измеренная на высоте 2 м над землей.
  • Te - Эффективная температура - температура, которую ощущает одетый по сезону человек в тени. Характеристика душности погоды. При расчете учитывается влияние влажности воздуха и скорости ветра на теплоощущения человека.
  • Tes - Эффективная температура на солнце - температура, которую ощущает человек, с поправкой на солнечный нагрев. Характеристика знойности погоды. Зависит от высоты солнца над горизонтом, облачности и скорости ветра. Ночью, в пасмурную погоду, а также при ветре 12 м/с и более поправка равна нулю.
  • P - Атмосферное давление - приведенное к уровню моря атмосферное давление.
  • Po - Атмосферное давление - измеренное на уровне метеостанции атмосферное давление.
  • Tmin - Минимальная температура - минимум температуры воздуха на высоте 2 м над землей.
  • Tmax - Максимальная температура - максимум температуры воздуха на высоте 2 м над землей.
  • R - Количество осадков - Количество выпавших осадков за период времени, мм. При наведении курсора мыши на число - период времени, за который выпало указанное количество осадков.
  • R24 - Количество осадков - Количество выпавших осадков за 24 часа, мм.
  • S - Снежный покров - Высота снежного покрова, см. При наведении курсора мыши на число - состояние снежного покрова и степень покрытия местности в баллах.